Time,TemperatureF,DewpointF,PressureIn,WindDirection,WindDirectionDegrees,WindSpeedMPH,WindSpeedGustMPH,Humidity,HourlyPrecipIn,Conditions,Clouds,dailyrainin,SoftwareType,DateUTC
2013-11-07 00:02:00,54.0,53.7,29.96,North,-999,0.0,-999.0,99,-99.99,,,-99.99,Acu-Link.com,2013-11-07 05:02:00,
2013-11-07 00:18:00,53.9,53.6,29.95,North,-999,0.0,-999.0,99,-99.99,,,-99.99,Acu-Link.com,2013-11-07 05:18:00,
2013-11-07 00:33:00,53.9,53.6,29.94,North,-999,0.0,-999.0,99,-99.99,,,-99.99,Acu-Link.com,2013-11-07 05:33:00,
2013-11-07 00:48:00,53.8,53.5,29.93,North,-999,0.0,-999.0,99,-99.99,,,-99.99,Acu-Link.com,2013-11-07 05:48:00,
2013-11-07 01:03:00,54.1,53.8,29.92,North,-999,0.0,-999.0,99,-99.99,,,-99.99,Acu-Link.com,2013-11-07 06:03:00,
2013-11-07 01:18:00,54.2,53.9,29.91,North,-999,0.0,-999.0,99,-99.99,,,-99.99,Acu-Link.com,2013-11-07 06:18:00,
2013-11-07 01:33:00,54.1,53.8,29.91,North,-999,0.0,-999.0,99,-99.99,,,-99.99,Acu-Link.com,2013-11-07 06:33:00,
2013-11-07 01:49:00,53.7,53.4,29.90,North,-999,0.0,-999.0,99,-99.99,,,-99.99,Acu-Link.com,2013-11-07 06:49:00,
2013-11-07 02:04:00,53.5,53.2,29.90,North,-999,0.0,-999.0,99,-99.99,,,-99.99,Acu-Link.com,2013-11-07 07:04:00,
2013-11-07 02:19:00,53.7,53.4,29.89,North,-999,0.0,-999.0,99,-99.99,,,-99.99,Acu-Link.com,2013-11-07 07:19:00,
2013-11-07 02:34:00,54.2,53.9,29.88,North,-999,0.0,-999.0,99,-99.99,,,-99.99,Acu-Link.com,2013-11-07 07:34:00,
2013-11-07 02:49:00,54.2,53.9,29.87,North,-999,0.0,-999.0,99,-99.99,,,-99.99,Acu-Link.com,2013-11-07 07:49:00,
2013-11-07 03:04:00,54.2,53.9,29.87,North,-999,0.0,-999.0,99,-99.99,,,-99.99,Acu-Link.com,2013-11-07 08:04:00,
2013-11-07 03:20:00,54.3,54.0,29.87,North,-999,0.0,-999.0,99,-99.99,,,-99.99,Acu-Link.com,2013-11-07 08:20:00,
2013-11-07 03:35:00,54.2,53.9,29.86,North,-999,3.2,-999.0,99,-99.99,,,-99.99,Acu-Link.com,2013-11-07 08:35:00,
2013-11-07 03:50:00,54.1,53.8,29.85,North,-999,0.0,-999.0,99,-99.99,,,-99.99,Acu-Link.com,2013-11-07 08:50:00,
2013-11-07 04:06:00,54.4,54.1,29.84,North,-999,1.6,-999.0,99,-99.99,,,-99.99,Acu-Link.com,2013-11-07 09:06:00,
2013-11-07 04:21:00,55.0,54.7,29.83,North,-999,0.0,-999.0,99,-99.99,,,-99.99,Acu-Link.com,2013-11-07 09:21:00,
2013-11-07 04:36:00,55.3,55.0,29.83,North,-999,0.0,-999.0,99,-99.99,,,-99.99,Acu-Link.com,2013-11-07 09:36:00,
2013-11-07 04:51:00,55.9,55.6,29.82,North,-999,1.6,-999.0,99,-99.99,,,-99.99,Acu-Link.com,2013-11-07 09:51:00,
2013-11-07 05:07:00,56.0,55.7,29.83,North,-999,0.0,-999.0,99,-99.99,,,-99.99,Acu-Link.com,2013-11-07 10:07:00,
2013-11-07 05:22:00,56.2,55.9,29.84,North,-999,0.0,-999.0,99,-99.99,,,-99.99,Acu-Link.com,2013-11-07 10:22:00,
2013-11-07 05:37:00,56.4,56.1,29.83,North,-999,0.0,-999.0,99,-99.99,,,-99.99,Acu-Link.com,2013-11-07 10:37:00,
2013-11-07 05:52:00,56.7,56.4,29.82,North,-999,0.0,-999.0,99,-99.99,,,-99.99,Acu-Link.com,2013-11-07 10:52:00,
2013-11-07 06:08:00,56.9,56.6,29.80,North,-999,0.0,-999.0,99,-99.99,,,-99.99,Acu-Link.com,2013-11-07 11:08:00,
2013-11-07 06:23:00,57.0,56.7,29.80,North,-999,0.0,-999.0,99,-99.99,,,-99.99,Acu-Link.com,2013-11-07 11:23:00,
2013-11-07 06:38:00,57.1,56.8,29.80,North,-999,0.0,-999.0,99,-99.99,,,-99.99,Acu-Link.com,2013-11-07 11:38:00,
2013-11-07 06:53:00,57.2,56.9,29.80,North,-999,0.0,-999.0,99,-99.99,,,-99.99,Acu-Link.com,2013-11-07 11:53:00,
2013-11-07 07:09:00,57.6,57.3,29.79,North,-999,0.0,-999.0,99,-99.99,,,-99.99,Acu-Link.com,2013-11-07 12:09:00,
2013-11-07 07:24:00,58.4,58.1,29.80,North,-999,0.0,-999.0,99,-99.99,,,-99.99,Acu-Link.com,2013-11-07 12:24:00,
2013-11-07 07:39:00,58.6,58.3,29.80,North,-999,0.0,-999.0,99,-99.99,,,-99.99,Acu-Link.com,2013-11-07 12:39:00,
2013-11-07 07:55:00,58.7,58.4,29.81,North,-999,0.0,-999.0,99,-99.99,,,-99.99,Acu-Link.com,2013-11-07 12:55:00,
2013-11-07 08:10:00,59.5,59.2,29.80,North,-999,0.0,-999.0,99,-99.99,,,-99.99,Acu-Link.com,2013-11-07 13:10:00,
2013-11-07 08:25:00,59.5,59.2,29.80,North,-999,0.0,-999.0,99,-99.99,,,-99.99,Acu-Link.com,2013-11-07 13:25:00,
2013-11-07 08:44:00,59.4,59.1,29.80,North,-999,0.0,-999.0,99,-99.99,,,-99.99,Acu-Link.com,2013-11-07 13:44:00,
2013-11-07 08:59:00,58.3,58.0,29.80,North,-999,0.0,-999.0,99,-99.99,,,-99.99,Acu-Link.com,2013-11-07 13:59:00,
2013-11-07 09:14:00,57.4,57.1,29.80,North,-999,0.0,-999.0,99,-99.99,,,-99.99,Acu-Link.com,2013-11-07 14:14:00,
2013-11-07 09:30:00,57.5,57.2,29.78,North,-999,0.0,-999.0,99,-99.99,,,-99.99,Acu-Link.com,2013-11-07 14:30:00,
2013-11-07 09:45:00,57.5,57.2,29.79,North,-999,0.0,-999.0,99,-99.99,,,-99.99,Acu-Link.com,2013-11-07 14:45:00,
2013-11-07 10:00:00,57.3,57.0,29.79,North,-999,0.0,-999.0,99,-99.99,,,-99.99,Acu-Link.com,2013-11-07 15:00:00,
2013-11-07 10:15:00,57.2,56.9,29.79,North,-999,0.0,-999.0,99,-99.99,,,-99.99,Acu-Link.com,2013-11-07 15:15:00,
2013-11-07 10:30:00,57.2,56.9,29.79,North,-999,0.0,-999.0,99,-99.99,,,-99.99,Acu-Link.com,2013-11-07 15:30:00,
2013-11-07 10:46:00,57.3,57.0,29.77,North,-999,0.0,-999.0,99,-99.99,,,-99.99,Acu-Link.com,2013-11-07 15:46:00,
2013-11-07 11:01:00,57.4,57.1,29.76,North,-999,0.0,-999.0,99,-99.99,,,-99.99,Acu-Link.com,2013-11-07 16:01:00,
2013-11-07 11:51:00,58.4,58.1,29.74,North,-999,0.0,-999.0,99,-99.99,,,-99.99,Acu-Link.com,2013-11-07 16:51:00,
2013-11-07 12:12:00,58.3,58.0,29.73,North,-999,0.0,-999.0,99,-99.99,,,-99.99,Acu-Link.com,2013-11-07 17:12:00,
2013-11-07 12:27:00,57.5,57.2,29.74,North,-999,0.0,-999.0,99,-99.99,,,-99.99,Acu-Link.com,2013-11-07 17:27:00,
2013-11-07 12:42:00,57.0,56.7,29.74,North,-999,1.6,-999.0,99,-99.99,,,-99.99,Acu-Link.com,2013-11-07 17:42:00,
2013-11-07 12:58:00,56.6,56.3,29.74,North,-999,0.0,-999.0,99,-99.99,,,-99.99,Acu-Link.com,2013-11-07 17:58:00,
2013-11-07 13:13:00,56.5,56.2,29.75,North,-999,0.0,-999.0,99,-99.99,,,-99.99,Acu-Link.com,2013-11-07 18:13:00,
2013-11-07 13:28:00,56.3,56.0,29.75,North,-999,1.6,-999.0,99,-99.99,,,-99.99,Acu-Link.com,2013-11-07 18:28:00,
2013-11-07 13:43:00,55.9,55.6,29.75,North,-999,0.0,-999.0,99,-99.99,,,-99.99,Acu-Link.com,2013-11-07 18:43:00,
2013-11-07 13:59:00,55.0,54.7,29.74,North,-999,0.0,-999.0,99,-99.99,,,-99.99,Acu-Link.com,2013-11-07 18:59:00,
2013-11-07 14:14:00,54.2,53.9,29.74,North,-999,0.0,-999.0,99,-99.99,,,-99.99,Acu-Link.com,2013-11-07 19:14:00,
2013-11-07 14:29:00,53.9,53.6,29.75,North,-999,0.0,-999.0,99,-99.99,,,-99.99,Acu-Link.com,2013-11-07 19:29:00,
2013-11-07 14:44:00,53.5,53.2,29.75,North,-999,0.0,-999.0,99,-99.99,,,-99.99,Acu-Link.com,2013-11-07 19:44:00,
2013-11-07 14:59:00,53.3,53.0,29.75,North,-999,0.0,-999.0,99,-99.99,,,-99.99,Acu-Link.com,2013-11-07 19:59:00,
2013-11-07 15:15:00,53.9,53.6,29.75,North,-999,0.0,-999.0,99,-99.99,,,-99.99,Acu-Link.com,2013-11-07 20:15:00,
2013-11-07 15:30:00,51.3,51.0,29.78,North,-999,9.6,-999.0,99,-99.99,,,-99.99,Acu-Link.com,2013-11-07 20:30:00,
2013-11-07 15:45:00,49.6,49.3,29.79,North,-999,0.0,-999.0,99,-99.99,,,-99.99,Acu-Link.com,2013-11-07 20:45:00,
2013-11-07 16:01:00,49.1,48.8,29.79,North,-999,0.0,-999.0,99,-99.99,,,-99.99,Acu-Link.com,2013-11-07 21:01:00,
2013-11-07 16:16:00,48.7,48.4,29.80,North,-999,1.6,-999.0,99,-99.99,,,-99.99,Acu-Link.com,2013-11-07 21:16:00,
2013-11-07 16:33:00,48.4,48.1,29.81,North,-999,4.8,-999.0,99,-99.99,,,-99.99,Acu-Link.com,2013-11-07 21:33:00,
2013-11-07 16:49:00,47.5,47.2,29.81,North,-999,1.6,-999.0,99,-99.99,,,-99.99,Acu-Link.com,2013-11-07 21:49:00,
2013-11-07 17:04:00,46.6,46.3,29.82,North,-999,0.0,-999.0,99,-99.99,,,-99.99,Acu-Link.com,2013-11-07 22:04:00,
2013-11-07 17:20:00,45.2,44.9,29.83,North,-999,0.0,-999.0,99,-99.99,,,-99.99,Acu-Link.com,2013-11-07 22:20:00,
2013-11-07 17:35:00,44.2,43.9,29.83,North,-999,0.0,-999.0,99,-99.99,,,-99.99,Acu-Link.com,2013-11-07 22:35:00,
2013-11-07 17:51:00,43.5,43.2,29.83,North,-999,0.0,-999.0,99,-99.99,,,-99.99,Acu-Link.com,2013-11-07 22:51:00,
2013-11-07 18:06:00,42.6,42.3,29.84,North,-999,0.0,-999.0,99,-99.99,,,-99.99,Acu-Link.com,2013-11-07 23:06:00,
2013-11-07 18:21:00,42.9,42.6,29.85,North,-999,0.0,-999.0,99,-99.99,,,-99.99,Acu-Link.com,2013-11-07 23:21:00,
2013-11-07 18:37:00,42.8,42.5,29.86,North,-999,0.0,-999.0,99,-99.99,,,-99.99,Acu-Link.com,2013-11-07 23:37:00,
2013-11-07 18:52:00,42.7,42.4,29.86,North,-999,0.0,-999.0,99,-99.99,,,-99.99,Acu-Link.com,2013-11-07 23:52:00,
2013-11-07 19:07:00,43.1,42.8,29.86,North,-999,0.0,-999.0,99,-99.99,,,-99.99,Acu-Link.com,2013-11-08 00:07:00,
2013-11-07 19:23:00,44.2,43.9,29.87,North,-999,0.0,-999.0,99,-99.99,,,-99.99,Acu-Link.com,2013-11-08 00:23:00,
2013-11-07 19:38:00,44.5,44.2,29.88,North,-999,0.0,-999.0,99,-99.99,,,-99.99,Acu-Link.com,2013-11-08 00:38:00,
2013-11-07 19:53:00,44.6,44.3,29.89,North,-999,0.0,-999.0,99,-99.99,,,-99.99,Acu-Link.com,2013-11-08 00:53:00,
2013-11-07 20:09:00,44.2,43.9,29.89,North,-999,0.0,-999.0,99,-99.99,,,-99.99,Acu-Link.com,2013-11-08 01:09:00,
2013-11-07 20:24:00,43.6,43.3,29.88,North,-999,0.0,-999.0,99,-99.99,,,-99.99,Acu-Link.com,2013-11-08 01:24:00,
2013-11-07 20:39:00,42.4,42.1,29.89,North,-999,0.0,-999.0,99,-99.99,,,-99.99,Acu-Link.com,2013-11-08 01:39:00,
2013-11-07 20:54:00,41.3,41.0,29.89,North,-999,0.0,-999.0,99,-99.99,,,-99.99,Acu-Link.com,2013-11-08 01:54:00,
2013-11-07 21:10:00,40.7,40.4,29.89,North,-999,0.0,-999.0,99,-99.99,,,-99.99,Acu-Link.com,2013-11-08 02:10:00,
2013-11-07 21:25:00,41.0,40.7,29.90,North,-999,0.0,-999.0,99,-99.99,,,-99.99,Acu-Link.com,2013-11-08 02:25:00,
2013-11-07 21:40:00,41.4,41.1,29.90,North,-999,0.0,-999.0,99,-99.99,,,-99.99,Acu-Link.com,2013-11-08 02:40:00,
2013-11-07 21:55:00,41.5,41.2,29.90,North,-999,0.0,-999.0,99,-99.99,,,-99.99,Acu-Link.com,2013-11-08 02:55:00,
2013-11-07 22:11:00,41.9,41.6,29.90,North,-999,0.0,-999.0,99,-99.99,,,-99.99,Acu-Link.com,2013-11-08 03:11:00,
2013-11-07 22:26:00,43.0,41.7,29.90,North,-999,0.0,-999.0,95,-99.99,,,-99.99,Acu-Link.com,2013-11-08 03:26:00,
2013-11-07 22:41:00,43.5,40.8,29.90,North,-999,0.0,-999.0,90,-99.99,,,-99.99,Acu-Link.com,2013-11-08 03:41:00,
2013-11-07 22:57:00,43.9,41.2,29.90,North,-999,1.6,-999.0,90,-99.99,,,-99.99,Acu-Link.com,2013-11-08 03:57:00,
2013-11-07 23:12:00,43.2,41.9,29.90,North,-999,0.0,-999.0,95,-99.99,,,-99.99,Acu-Link.com,2013-11-08 04:12:00,
2013-11-07 23:27:00,42.2,41.9,29.90,North,-999,1.6,-999.0,99,-99.99,,,-99.99,Acu-Link.com,2013-11-08 04:27:00,
2013-11-07 23:42:00,41.9,41.6,29.91,North,-999,0.0,-999.0,99,-99.99,,,-99.99,Acu-Link.com,2013-11-08 04:42:00,
2013-11-07 23:58:00,42.1,40.2,29.91,North,-999,0.0,-999.0,93,-99.99,,,-99.99,Acu-Link.com,2013-11-08 04:58:00,